Flag for Denmark Weather past 2 weeks in Roskilde, Denmark

Now
41 °F

Passing clouds.


Feels Like: 37 °F
Forecast: 36 / 51 °F
Wind: 6 mph from Northwest

Location: Koebenhavn / Roskilde

Current Time: Apr 28, 2015 at 12:57:54 AM

Latest Report: Apr 28, 2015 at 12:20 AM


Visibility: N/A

Pressure: 29.77 "Hg

Humidity: 70%

Dew point: 32 °F

Location of RoskildeLocation

Historic Weather in Roskilde — Graph

°F

Roskilde temperature yesterday

Maximum temperature yesterday: 52 °F (at 2:20 PM)
Minimum temperature yesterday: 34 °F (at 4:50 AM)
Average temperature yesterday: 44 °F

Past Weeks' High & Low Weather Summary

 TemperatureHumidityPressure
High61 °F (Apr 15, 2:20 PM)100% (Apr 13, 2:20 AM)30.33 "Hg (Apr 13, 2:20 AM)
Low32 °F (Apr 18, 3:50 AM)38% (Apr 20, 7:50 PM)29.62 "Hg (Apr 25, 7:20 PM)
Average47 °F76%29.98 "Hg
* Reported Apr 13 12:20 AM — Apr 28 12:20 AM, Roskilde, Weather by CustomWeather, © 2015

Note: Actual official high and low records may vary slightly from our data, if they occured in-between our weather recording intervals... More about our weather records

Advertising

Roskilde weather history for previous 24 hours

 ConditionsComfort  
Time TempWeatherWind HumidityBarometerVisibility
12:20 AM
Tue, Apr 28
41 °FPassing clouds.6 mph70%29.77 "HgN/A
11:20 PM
Mon, Apr 27
39 °FPassing clouds.6 mph81%29.77 "HgN/A
10:50 PM41 °FPassing clouds.6 mph76%29.77 "HgN/A
10:20 PM43 °FQuite cool.8 mph71%29.77 "HgN/A
9:50 PM45 °FQuite cool.9 mph61%29.74 "HgN/A
9:20 PM46 °FCool.8 mph62%29.74 "HgN/A
8:50 PM46 °FCool.9 mph62%29.74 "HgN/A
8:20 PM48 °FCool.9 mph58%29.74 "HgN/A
7:50 PM48 °FCool.9 mph58%29.74 "HgN/A
7:20 PM50 °FPassing clouds.12 mph50%29.71 "HgN/A
6:50 PM50 °FScattered clouds.12 mph47%29.71 "HgN/A
6:20 PM50 °FPassing clouds.9 mph47%29.71 "HgN/A
5:50 PM52 °FPartly sunny.10 mph50%29.71 "HgN/A
5:20 PM50 °FBroken clouds.10 mph54%29.71 "HgN/A
4:50 PM52 °FScattered clouds.13 mph54%29.71 "HgN/A
4:20 PM52 °FPassing clouds.9 mph47%29.71 "HgN/A
3:50 PM52 °FCool.12 mph44%29.71 "HgN/A
3:20 PM50 °FCool.10 mph50%29.71 "HgN/A
2:50 PM50 °FCool.12 mph50%29.71 "HgN/A
2:20 PM52 °FCool.10 mph47%29.71 "HgN/A
1:50 PM50 °FCool.10 mph50%29.71 "HgN/A
1:20 PM50 °FCool.8 mph47%29.71 "HgN/A
12:50 PM50 °FScattered clouds.8 mph54%29.71 "HgN/A
12:20 PM50 °FPassing clouds.5 mph67%29.71 "HgN/A
11:50 AM48 °FPartly sunny.5 mph76%29.71 "HgN/A
11:20 AM46 °FBroken clouds.6 mph82%29.71 "HgN/A
10:50 AM46 °FBroken clouds.6 mph82%29.71 "HgN/A
10:20 AM45 °FPartly sunny.7 mph81%29.71 "HgN/A
9:50 AM45 °FPartly sunny.7 mph81%29.71 "HgN/A
9:20 AM45 °FBroken clouds.7 mph87%29.71 "HgN/A
8:50 AM43 °FBroken clouds.3 mph93%29.71 "HgN/A
8:20 AM43 °FPartly sunny.1 mph93%29.71 "HgN/A
7:50 AM41 °FPartly sunny.2 mph100%29.71 "HgN/A
7:20 AM41 °FPartly sunny.2 mph100%29.71 "HgN/A
6:50 AM39 °FOvercast.2 mph93%29.68 "HgN/A
6:20 AM37 °FPassing clouds.2 mph100%29.68 "HgN/A
5:50 AM36 °FOvercast.1 mph100%29.68 "Hg6 mi
5:20 AM36 °FPassing clouds.1 mph100%29.68 "HgN/A
4:50 AM34 °FPassing clouds.3 mph100%29.68 "HgN/A
4:20 AM36 °FFog.5 mph100%29.68 "Hg3 mi
3:50 AM37 °FFog.2 mph100%29.71 "Hg2 mi
3:20 AM37 °FFog.No wind100%29.71 "Hg3 mi
2:50 AM37 °FPartly cloudy.5 mph100%29.71 "HgN/A
2:20 AM37 °FFog.3 mph100%29.71 "Hg2 mi
1:50 AM37 °FPartly cloudy.3 mph100%29.71 "Hg3 mi
1:20 AM37 °FOvercast.3 mph100%29.71 "Hg4 mi
12:50 AM37 °FOvercast.5 mph100%29.71 "Hg4 mi
12:20 AM37 °FPassing clouds.5 mph100%29.71 "Hg3 mi
Weather by CustomWeather, © 2015

See weather overviewHow to use our weather pages